Torna al catalogo

STARLINK-35217

AttivoComunicazioniVLEO
NORAD 65627·PAYLOAD·🇺🇸 United States

Lanciato Sep 18, 2025 da Cape Canaveral Space Force Station

Loading…

Prossimi Passaggi (prossime 24 ore)

TLE

AggiornatoSource: CelesTrak SupGP

Epoca: Sep 15, 2026, 03:23 UTC

1 65627C 25210F   26258.14145833  .00052874  00000+0  15625-2 0  2582
2 65627  53.1578 146.5115 0001182  81.1209 338.7684 15.34357369    19

Traccia STARLINK-35217 in tempo reale con AllMySat

Download on the App Store